Location: The Saddle
(36.8333°N, 80.3417°W)
Time: 08:45:43
(UTC-05:00)

Vanguard 2 Rocket - Pass Details

Date: 19 December 2023
Orbit: 555 x 3309 km, 32.9° (Epoch: 02 March)

Event Time Altitude Azimuth Distance (km) Brightness Sun altitude
Rises 15:39:30 0° 280° (W) 5,655 11.5 13.4°
Reaches altitude 10° 15:42:47 10° 276° (W) 4,957 11.4 12.9°
Maximum altitude 15:57:56 58° 203° (SSW) 3,441 10.5 10.6°
Drops below altitude 10° 16:17:29 10° 131° (SE) 6,192 11.0 7.6°
Sets 16:22:12 0° 128° (SE) 7,080 11.3 6.8°
